Погода в Руасси-ан-Франс

Франция     49°00′02″N   2°30′53″E
темп.,
°C
ветер,
м/с
пор.,
м/с
влажн.,
%
обл.,
%
осадки,
мм/ч
давл.,
гПа
погр.,
м
22 апреля, чт
чт2223:00+10ссв512751 0.0 1019495
02:00+8св412833 0.0 1021396
05:00+6св410810 0.0 1021312
08:00+5св510755 0.0 1023341
11:00+10св57535 0.0 1024678
14:00+14всв56355 0.0 10241098
17:00+15всв57310 0.0 10231265
20:00+12св58500 0.0 1024808
23 апреля, пт
пт2323:00+8св412653 0.0 1026429
02:00+6св310694 0.0 1026301
05:00+5св39743 0.0 1026219
08:00+5всв49705 0.0 1027241
11:00+12всв57491 0.0 1027704
14:00+16всв56380 0.0 10261256
17:00+17всв57370 0.0 10241359
20:00+14всв48530 0.0 1025736
24 апреля, сб
сб2423:00+9св38700 0.0 1025222
02:00+8всв39730 0.0 1025235
05:00+6всв310705 0.0 1024253
08:00+6всв310655 0.0 1025272
11:00+13в474871 0.0 1024640
14:00+17всв56386 0.0 10231186
17:00+18всв674066 0.0 10221374
20:00+15всв485684 0.0 1022712
25 апреля, вс
вс2523:00+11св4117368 0.0 1023305
02:00+9всв4126883 0.0 1023358
05:00+7св41070100 0.0 1022257
08:00+7св51272100 0.0 1021322
11:00+13всв585462 0.0 1021642
14:00+18всв564695 0.0 10191146
17:00+18всв6747100 0.0 10161303
20:00+16всв4862100 0.0 1016748
26 апреля, пн
пн2623:00+12св41171100 0.0 1015370
02:00+11св41170100 0.0 1013312
05:00+10св4969100 0.1 1012288
08:00+10св4871100 0.3 1011251
11:00+14всв346099 0.0 1010565
14:00+17в225880 0.1 1008869
17:00+17ю1160100 0.4 10061052
20:00+12с3690100 2.1 1006298